This demonstration page uses our WeatherBlox Daily Observations layout. Learn more.

Left ArrowRight Arrow

Hourly Observations for May 16, 2022

Temp ( °F °C ) Dew Point ( °F °C ) Humidity (%) Winds ( mph kmh ) Pressure ( in mb ) Visibility ( mi km ) Precip ( " mm )
12:54 am 00:54 Clear 52 11.1 46 7.8 80 80 Calm 30.04 1017 10 16 0.00 0.00
1:54 am 01:54 Clear 57 13.9 48 8.9 72 72 Calm 30.03 1017 10 16 0.00 0.00
2:54 am 02:54 Clear 53 11.7 48 8.9 83 83 Calm 30.04 1017 10 16 0.00 0.00
3:54 am 03:54 Clear 51 10.6 46 7.8 83 83 Calm 30.04 1017 10 16 0.00 0.00
4:54 am 04:54 Clear 51 10.6 46 7.8 83 83 Calm 30.04 1017 10 16 0.00 0.00
5:54 am 05:54 Clear 49 9.4 45 7.2 86 86 S 3 6 30.04 1017 10 16 0.00 0.00
6:54 am 06:54 Sunny 51 10.6 47 8.3 86 86 SSE 3 6 30.05 1018 10 16 0.00 0.00
7:54 am 07:54 Sunny 57 13.9 51 10.6 81 81 Calm 30.05 1018 10 16 0.00 0.00
8:54 am 08:54 Sunny 64 17.8 51 10.6 63 63 Calm 30.05 1018 10 16 0.00 0.00
9:54 am 09:54 Sunny 72 22.2 52 11.1 50 50 WSW 8 13 30.05 1018 10 16 0.00 0.00
10:54 am 10:54 Sunny 76 24.4 47 8.3 36 36 SW 10 17 30.04 1017 10 16 0.00 0.00
11:54 am 11:54 Sunny 78 25.6 45 7.2 31 31 SW 13 20 30.04 1017 10 16 0.00 0.00
12:54 pm 12:54 Sunny 79 26.1 48 8.9 34 34 SSW 10 17 30.02 1017 10 16 0.00 0.00
1:54 pm 13:54 Sunny 79 26.1 48 8.9 34 34 SW 9 15 29.99 1016 10 16 0.00 0.00
2:54 pm 14:54 Sunny 81 27.2 47 8.3 30 30 SW 10 17 29.97 1015 10 16 0.00 0.00
3:54 pm 15:54 Sunny 81 27.2 49 9.4 33 33 SSW 8 13 29.94 1014 10 16 0.00 0.00
4:54 pm 16:54 Sunny 81 27.2 49 9.4 33 33 SW 8 13 29.91 1013 10 16 0.00 0.00
5:54 pm 17:54 Sunny 81 27.2 51 10.6 35 35 S 13 20 29.89 1012 10 16 0.00 0.00
6:54 pm 18:54 Sunny 79 26.1 51 10.6 38 38 S 9 15 29.88 1012 10 16 0.00 0.00
7:54 pm 19:54 Sunny 76 24.4 50 10 40 40 S 8 13 29.89 1012 10 16 0.00 0.00
8:54 pm 20:54 Clear 68 20 51 10.6 55 55 S 8 13 29.90 1013 10 16 0.00 0.00
9:54 pm 21:54 Clear 68 20 50 10 53 53 SSE 6 9 29.90 1013 10 16 0.00 0.00
10:54 pm 22:54 Clear 65 18.3 50 10 59 59 S 6 9 29.91 1013 10 16 0.00 0.00
11:54 pm 23:54 Clear 63 17.2 51 10.6 65 65 S 8 13 29.91 1013 10 16 0.00 0.00

Powered by AerisWeather